When you browse on this site, cookies collect data to enhance your experience and personalize the content and advertising you see.
Visit our Privacy Policy to learn more. By continuing to use the site, you agree to this use of cookies and data.
  • In Romania
  • List of Countries
  • For 7 days
  • Water Temperature
  • Satellite Maps
  • Weather Map
  • Weather Widgets
  • user-avatar
    Login

    Hourly Weather Semnan

    Today, 24 March, Sunday

    Time Temperature Precipitation Wind Pressure Humidity
    00:00 +13°C° 0 mm 2 mps 678 mmHg 37%
    01:00 +12°C° 0 mm 2 mps 678 mmHg 37%
    02:00 +12°C° 0 mm 2 mps 677 mmHg 38%
    03:00 +12°C° 0 mm 2 mps 677 mmHg 39%
    04:00 +11°C° 0 mm 3 mps 677 mmHg 38%
    05:00 +12°C° 0 mm 2 mps 677 mmHg 38%
    06:00 +10°C° 0 mm 2 mps 677 mmHg 38%
    07:00 +10°C° 0 mm 2 mps 677 mmHg 38%
    08:00 +13°C° 0 mm 2 mps 677 mmHg 34%
    09:00 +14°C° 0 mm 1 mps 677 mmHg 31%
    10:00 +16°C° 0 mm 1 mps 677 mmHg 28%
    11:00 +16°C° 0 mm 1 mps 677 mmHg 27%
    12:00 +18°C° 0 mm 1 mps 677 mmHg 26%
    13:00 +18°C° 0 mm 2 mps 677 mmHg 25%
    14:00 +18°C° 0 mm 2 mps 676 mmHg 25%
    15:00 +19°C° 0 mm 2 mps 676 mmHg 25%
    16:00 +20°C° 0 mm 1 mps 676 mmHg 24%
    17:00 +19°C° 0 mm 2 mps 675 mmHg 26%
    18:00 +18°C° 0 mm 2 mps 675 mmHg 27%
    19:00 +18°C° 0 mm 3 mps 675 mmHg 29%
    20:00 +17°C° 0 mm 3 mps 675 mmHg 29%
    21:00 +17°C° 0 mm 3 mps 675 mmHg 28%
    22:00 +17°C° 0 mm 3 mps 675 mmHg 28%
    23:00 +16°C° 0 mm 3 mps 675 mmHg 28%

    Tomorrow, 25 March, Monday

    Time Temperature Precipitation Wind Pressure Humidity
    00:00 +16°C° 0 mm 3 mps 675 mmHg 28%
    01:00 +16°C° 0 mm 3 mps 675 mmHg 29%
    02:00 +16°C° 0 mm 3 mps 675 mmHg 30%
    03:00 +16°C° 0 mm 3 mps 674 mmHg 31%
    04:00 +16°C° 0 mm 3 mps 674 mmHg 33%
    05:00 +16°C° 0 mm 3 mps 675 mmHg 33%
    06:00 +16°C° 0 mm 3 mps 675 mmHg 34%
    07:00 +16°C° 0 mm 3 mps 675 mmHg 35%
    08:00 +16°C° 0 mm 3 mps 675 mmHg 37%
    09:00 +17°C° 0 mm 3 mps 675 mmHg 39%
    10:00 +18°C° 0 mm 4 mps 676 mmHg 41%
    11:00 +18°C° 0 mm 4 mps 676 mmHg 40%
    12:00 +19°C° 0 mm 4 mps 675 mmHg 39%
    13:00 +20°C° 0 mm 4 mps 675 mmHg 38%
    14:00 +20°C° 0.2 mm 4 mps 675 mmHg 40%
    15:00 +20°C° 0.2 mm 4 mps 674 mmHg 41%
    16:00 +20°C° 0.2 mm 5 mps 674 mmHg 43%
    17:00 +20°C° 0.2 mm 4 mps 674 mmHg 44%
    18:00 +19°C° 0.2 mm 4 mps 674 mmHg 45%
    19:00 +19°C° 0.2 mm 3 mps 674 mmHg 46%
    20:00 +18°C° 0.3 mm 3 mps 674 mmHg 52%
    21:00 +18°C° 0.3 mm 3 mps 675 mmHg 58%
    22:00 +17°C° 0.3 mm 2 mps 675 mmHg 63%
    23:00 +17°C° 0.5 mm 2 mps 675 mmHg 66%

    Day after tomorrow, 26 March, Tuesday

    Time Temperature Precipitation Wind Pressure Humidity
    00:00 +16°C° 0.5 mm 2 mps 675 mmHg 68%
    01:00 +16°C° 0.5 mm 2 mps 676 mmHg 70%
    02:00 +16°C° 0.2 mm 1 mps 676 mmHg 71%
    03:00 +15°C° 0.2 mm 1 mps 676 mmHg 72%
    04:00 +15°C° 0.2 mm 1 mps 676 mmHg 72%
    05:00 +15°C° 0 mm 1 mps 676 mmHg 70%
    06:00 +15°C° 0 mm 1 mps 676 mmHg 68%
    07:00 +15°C° 0 mm 1 mps 677 mmHg 66%
    08:00 +16°C° 0 mm 1 mps 677 mmHg 62%
    09:00 +16°C° 0 mm 2 mps 677 mmHg 58%
    10:00 +17°C° 0 mm 2 mps 678 mmHg 54%
    11:00 +18°C° 0 mm 2 mps 678 mmHg 51%
    12:00 +18°C° 0 mm 2 mps 678 mmHg 48%
    13:00 +19°C° 0 mm 2 mps 678 mmHg 46%
    14:00 +18°C° 0.1 mm 3 mps 677 mmHg 46%
    15:00 +18°C° 0.1 mm 3 mps 677 mmHg 46%
    16:00 +18°C° 0.1 mm 3 mps 676 mmHg 47%
    17:00 +18°C° 0.1 mm 3 mps 676 mmHg 47%
    18:00 +18°C° 0.1 mm 3 mps 676 mmHg 47%
    19:00 +18°C° 0.1 mm 3 mps 677 mmHg 47%
    20:00 +17°C° 2 mm 3 mps 677 mmHg 52%
    21:00 +16°C° 2 mm 3 mps 676 mmHg 57%
    22:00 +14°C° 2 mm 3 mps 676 mmHg 61%
    23:00 +15°C° 0.5 mm 2 mps 676 mmHg 63%

    27 March, Wednesday

    Time Temperature Precipitation Wind Pressure Humidity
    00:00 +15°C° 0.5 mm 1 mps 676 mmHg 65%
    01:00 +14°C° 0.5 mm 1 mps 675 mmHg 66%
    02:00 +14°C° 0.2 mm 1 mps 675 mmHg 69%
    03:00 +13°C° 0.2 mm 2 mps 675 mmHg 73%
    04:00 +13°C° 0.2 mm 2 mps 675 mmHg 76%
    05:00 +12°C° 0.1 mm 2 mps 675 mmHg 77%
    06:00 +12°C° 0.1 mm 2 mps 675 mmHg 78%
    07:00 +11°C° 0.1 mm 3 mps 675 mmHg 80%
    08:00 +12°C° 0 mm 5 mps 676 mmHg 62%
    09:00 +14°C° 0 mm 7 mps 677 mmHg 44%
    10:00 +16°C° 0 mm 9 mps 677 mmHg 26%
    11:00 +16°C° 0 mm 9 mps 677 mmHg 27%
    12:00 +16°C° 0 mm 9 mps 677 mmHg 29%
    13:00 +17°C° 0 mm 9 mps 677 mmHg 30%
    14:00 +17°C° 0 mm 9 mps 677 mmHg 31%
    15:00 +17°C° 0 mm 8 mps 677 mmHg 32%
    16:00 +17°C° 0 mm 8 mps 677 mmHg 33%
    17:00 +16°C° 0 mm 7 mps 677 mmHg 34%
    18:00 +16°C° 0 mm 6 mps 677 mmHg 35%
    19:00 +15°C° 0 mm 5 mps 678 mmHg 36%
    20:00 +15°C° 0 mm 4 mps 678 mmHg 38%
    21:00 +14°C° 0 mm 3 mps 678 mmHg 41%
    22:00 +15°C° 0 mm 2 mps 679 mmHg 44%
    23:00 +14°C° 0 mm 2 mps 678 mmHg 45%

    28 March, Thursday

    Time Temperature Precipitation Wind Pressure Humidity
    00:00 +14°C° 0 mm 2 mps 678 mmHg 46%
    01:00 +13°C° 0 mm 1 mps 678 mmHg 48%
    02:00 +13°C° 0 mm 1 mps 678 mmHg 49%
    03:00 +12°C° 0 mm 1 mps 678 mmHg 50%
    04:00 +12°C° 0 mm 1 mps 678 mmHg 51%
    05:00 +12°C° 0 mm 1 mps 678 mmHg 51%
    06:00 +12°C° 0 mm 1 mps 678 mmHg 50%
    07:00 +12°C° 0 mm 1 mps 679 mmHg 50%
    08:00 +13°C° 0 mm 1 mps 679 mmHg 44%
    09:00 +14°C° 0 mm 1 mps 680 mmHg 39%
    10:00 +16°C° 0 mm 1 mps 680 mmHg 33%
    11:00 +16°C° 0 mm 1 mps 680 mmHg 30%
    12:00 +18°C° 0 mm 1 mps 680 mmHg 28%
    13:00 +18°C° 0 mm 2 mps 680 mmHg 26%
    14:00 +18°C° 0 mm 3 mps 680 mmHg 25%
    15:00 +19°C° 0 mm 3 mps 679 mmHg 24%
    16:00 +19°C° 0 mm 4 mps 679 mmHg 23%
    17:00 +19°C° 0 mm 4 mps 679 mmHg 24%
    18:00 +18°C° 0 mm 3 mps 679 mmHg 26%
    19:00 +17°C° 0 mm 2 mps 680 mmHg 28%
    20:00 +17°C° 0 mm 2 mps 680 mmHg 31%
    21:00 +16°C° 0 mm 1 mps 680 mmHg 34%
    22:00 +15°C° 0 mm 1 mps 680 mmHg 37%
    23:00 +15°C° 0 mm 1 mps 680 mmHg 39%

    29 March, Friday

    Time Temperature Precipitation Wind Pressure Humidity
    00:00 +14°C° 0 mm 1 mps 680 mmHg 41%
    01:00 +14°C° 0 mm 2 mps 680 mmHg 44%
    02:00 +13°C° 0 mm 2 mps 680 mmHg 45%
    03:00 +13°C° 0 mm 2 mps 680 mmHg 47%
    04:00 +12°C° 0 mm 2 mps 680 mmHg 49%
    05:00 +12°C° 0 mm 2 mps 680 mmHg 50%
    06:00 +12°C° 0 mm 1 mps 680 mmHg 50%
    07:00 +12°C° 0 mm 1 mps 681 mmHg 51%
    08:00 +13°C° 0 mm 1 mps 681 mmHg 46%
    09:00 +13°C° 0 mm 1 mps 682 mmHg 40%
    10:00 +13°C° 0 mm 0 mps 682 mmHg 35%
    11:00 +15°C° 0 mm 1 mps 682 mmHg 34%
    12:00 +16°C° 0 mm 2 mps 682 mmHg 32%
    13:00 +17°C° 0 mm 3 mps 682 mmHg 31%
    14:00 +17°C° 0 mm 3 mps 682 mmHg 30%
    15:00 +17°C° 0 mm 3 mps 681 mmHg 29%
    16:00 +18°C° 0 mm 3 mps 681 mmHg 28%
    17:00 +17°C° 0 mm 3 mps 681 mmHg 29%
    18:00 +17°C° 0 mm 3 mps 681 mmHg 30%
    19:00 +17°C° 0 mm 2 mps 681 mmHg 30%
    20:00 +16°C° 0 mm 2 mps 681 mmHg 32%
    21:00 +16°C° 0 mm 2 mps 681 mmHg 33%
    22:00 +15°C° 0 mm 2 mps 681 mmHg 34%
    23:00 +15°C° 0 mm 2 mps 681 mmHg 36%
    Show more